Location: Unspecified
(41.0568°N, 0.0000°E)
Time: 04:35:46
(UTC+00:00)

Courier 1B Rocket - All Passes

Search period start: 04 April 2026 00:00
Search period end: 14 April 2026 00:00
Orbit: 920 x 1201 km, 28.2° (Epoch: 28 March)

Date Brightness Start Highest point End Pass type
(mag) Time Alt. Az. Time Alt. Az. Time Alt. Az.
4 Apr - 00:14:37 10° SSW 00:18:08 16° SSE 00:21:41 10° SE night (unlit)
4 Apr - 02:05:37 10° SW 02:10:33 25° S 02:15:38 10° ESE visible
4 Apr - 03:58:13 10° WSW 04:03:06 23° S 04:08:11 10° SE visible
4 Apr - 05:52:43 10° SW 05:55:36 13° SSW 05:58:33 10° S daylight
4 Apr - 23:15:13 10° S 23:17:17 12° SSE 23:19:20 10° SE night (unlit)
5 Apr - 01:04:56 10° SW 01:09:37 22° S 01:14:21 10° ESE night (unlit)
5 Apr - 02:57:10 10° WSW 03:02:08 25° S 03:07:15 10° SE visible
5 Apr - 04:50:47 10° SW 04:54:38 16° SSW 04:58:37 10° SSE visible
6 Apr - 00:04:25 10° SSW 00:08:42 19° SSE 00:12:59 10° ESE night (unlit)
6 Apr - 01:56:12 10° SW 02:01:11 25° S 02:06:15 10° SE visible
6 Apr - 03:49:19 10° WSW 03:53:41 20° SSW 03:58:12 10° SSE visible
6 Apr - 23:04:11 10° SSW 23:07:48 16° SSE 23:11:24 10° SE night (unlit)
7 Apr - 00:55:20 10° SW 01:00:15 24° S 01:05:09 10° ESE night (unlit)
7 Apr - 02:48:04 10° WSW 02:52:45 22° S 02:57:32 10° SE visible
7 Apr - 04:42:55 10° SW 04:45:10 12° SSW 04:47:27 10° S visible
7 Apr - 22:04:30 10° S 22:06:55 12° SSE 22:09:18 10° SE night (unlit)
7 Apr - 23:54:34 10° SW 23:59:18 22° S 00:04:00 10° ESE night (unlit)
8 Apr - 01:46:56 10° WSW 01:51:48 24° S 01:56:44 10° SE visible
8 Apr - 03:40:45 10° SW 03:44:15 15° SSW 03:47:50 10° SSE visible
8 Apr - 22:53:56 10° SSW 22:58:23 20° SSE 23:02:45 10° ESE night (unlit)
9 Apr - 00:45:54 10° SW 00:50:53 25° S 00:55:50 10° SE night (unlit)
9 Apr - 02:39:10 10° WSW 02:43:20 19° SSW 02:47:35 10° SSE visible
9 Apr - 21:53:32 10° SSW 21:57:27 17° SSE 22:01:17 10° SE night (unlit)
9 Apr - 23:44:55 10° SW 23:49:56 25° S 23:54:51 10° SE night (unlit)
10 Apr - 01:37:48 10° WSW 01:42:26 22° S 01:47:03 10° SE night (unlit)
10 Apr - 03:33:06 10° SW 03:34:47 11° SSW 03:36:28 10° S visible
10 Apr - 20:53:35 10° S 20:56:31 13° SSE 20:59:24 10° SE visible
10 Apr - 22:44:02 10° SW 22:48:59 23° S 22:53:47 10° ESE night (unlit)
11 Apr - 00:36:34 10° WSW 00:41:30 24° S 00:46:22 10° SE night (unlit)
11 Apr - 02:30:35 10° SW 02:33:54 15° SSW 02:37:14 10° SSE visible
11 Apr - 21:43:16 10° SSW 21:48:01 21° SSE 21:52:36 10° ESE visible
11 Apr - 23:35:26 10° SW 23:40:34 25° S 23:45:34 10° SE night (unlit)
12 Apr - 01:28:51 10° WSW 01:33:01 18° SSW 01:37:09 10° SSE night (unlit)
12 Apr - 20:42:42 10° SSW 20:47:03 18° SSE 20:51:14 10° ESE visible
12 Apr - 22:34:20 10° SW 22:39:35 25° S 22:44:39 10° ESE night (unlit)
13 Apr - 00:27:23 10° WSW 00:32:07 22° S 00:36:45 10° SE night (unlit)
13 Apr - 02:23:05 10° SW 02:24:26 11° SSW 02:25:45 10° SSW night (unlit)
13 Apr - 19:42:31 10° S 19:46:04 14° SSE 19:49:30 10° SE visible
13 Apr - 21:33:19 10° SW 21:38:36 24° S 21:43:39 10° ESE visible
13 Apr - 23:26:02 10° WSW 23:31:11 25° S 23:36:08 10° SE night (unlit)
